Simultaneous Nadir Overpasses (SNOs) Predictions

Prediction of SNOs between TERRA and METOP-C Satellite Orbit:

Table of predicted SNOs for the next 14.0 days since TLE Epoch: 9/18/2021
Index Date (TERRA) Time (TERRA) Lat,Lon (TERRA) SZA (TERRA ) Date (METOP-C) Time (METOP-C) Lat,Lon (METOP-C) SZA (METOP-C ) Distance(km) Time Diff (sec)
1 09/18/2021 19:04:28 -81.29, 119.17 97.53 09/18/2021 19:03:52 -81.29, 119.21 97.54 0.83 36
2 09/18/2021 19:53:54 81.29, -73.08 82.50 09/18/2021 19:54:32 81.30, -73.08 82.53 0.72 38
3 09/21/2021 14:38:40 -81.30,-174.19 96.39 09/21/2021 14:38:12 -81.30,-174.31 96.42 1.99 28
4 09/21/2021 15:28:06 81.30, -6.48 83.64 09/21/2021 15:28:52 81.30, -6.67 83.64 3.21 46
5 09/24/2021 10:12:53 -81.29,-107.97 95.31 09/24/2021 10:12:32 -81.30,-107.84 95.30 2.44 21
6 09/24/2021 11:02:18 81.31, 60.09 84.77 09/24/2021 11:03:11 81.31, 60.12 84.80 0.62 53
7 09/27/2021 05:47:04 -81.30, -41.41 94.17 09/27/2021 05:46:51 -81.30, -41.38 94.17 0.51 13
8 09/27/2021 06:36:29 81.32, 126.62 85.90 09/27/2021 06:37:30 81.31, 126.50 85.91 2.43 61
9 09/30/2021 01:21:16 -81.30, 25.11 93.05 09/30/2021 01:21:11 -81.30, 25.05 93.06 1.04 5



Historial Predications of SNOs between TERRA and METOP-C
